Find Starlink 38177

NORAD ID: 100234 Int'l Des: 2026-177 Owner: SPXS Country: US Constellation: starlink operational

Current View

Loading 3D Globe...

About Starlink 38177

Starlink 38177 (NORAD 100234) is a starlink constellation satellite launched Aug 4, 2026 by SPXS of US. with a mass of 575.00 kg.

Upcoming Passes

Passes for default location (London). Set your location on the main map for personalized predictions.

Altitude History

Loading altitude history...

Two-Line Element Set

1 A0234U 26177X 26236.60832132 .00277981 00000-0 14042-2 0 9993
2 A0234 97.2828 286.6384 0002799 81.5973 278.5613 15.80845856 3166
Epoch: Aug 24, 2026 • Age: 9 hours

Current Status

Altitude 339.1 km
Apogee / Perigee N/A
Velocity 7.71 km/s
Sub-Earth Point 82.64°N, 147.87°W
Launch Date Aug 4, 2026
Age 20 days
Type internet

Technical Details

Classification Payload
Mass 575.00 kg
Dry Mass 530.00 kg
Total Mass 575.00 kg
Length 0.30 m
Diameter 4.10 m
Span 29.00 m
Shape Box + pan
Manufacturer SPXS
Bus Type Starlink V2MO
Phase Status In Orbit
Owner/State SPXS/US

Most Searched